Year,Month,Day,Hour,Minute,Value (Times are PST for temperature in C)
2018,06,16,00,00,12.80
2018,06,16,00,01,12.80
2018,06,16,00,02,12.70
2018,06,16,00,03,12.70
2018,06,16,00,04,12.70
2018,06,16,00,05,12.70
2018,06,16,00,06,12.70
2018,06,16,00,07,12.70
2018,06,16,00,08,12.70
2018,06,16,00,09,12.70
2018,06,16,00,10,12.70
2018,06,16,00,11,12.70
2018,06,16,00,12,12.70
2018,06,16,00,13,12.70
2018,06,16,00,14,12.70
2018,06,16,00,15,12.70
2018,06,16,00,16,12.70
2018,06,16,00,17,12.70
2018,06,16,00,18,12.70
2018,06,16,00,19,12.70
2018,06,16,00,20,12.60
2018,06,16,00,21,12.60
2018,06,16,00,22,12.60
2018,06,16,00,23,12.60
2018,06,16,00,24,12.60
2018,06,16,00,25,12.60
2018,06,16,00,26,12.60
2018,06,16,00,27,12.60
2018,06,16,00,28,12.50
2018,06,16,00,29,12.50
2018,06,16,00,30,12.50
2018,06,16,00,31,12.50
2018,06,16,00,32,12.50
2018,06,16,00,33,12.50
2018,06,16,00,34,12.50
2018,06,16,00,35,12.50
2018,06,16,00,36,12.50
2018,06,16,00,37,12.50
2018,06,16,00,38,12.50
2018,06,16,00,39,12.50
2018,06,16,00,40,12.50
2018,06,16,00,41,12.40
2018,06,16,00,42,12.40
2018,06,16,00,43,12.40
2018,06,16,00,44,12.40
2018,06,16,00,45,12.40
2018,06,16,00,46,12.40
2018,06,16,00,47,12.40
2018,06,16,00,48,12.40
2018,06,16,00,49,12.40
2018,06,16,00,50,12.40
2018,06,16,00,51,12.30
2018,06,16,00,52,12.30
2018,06,16,00,53,12.30
2018,06,16,00,54,12.30
2018,06,16,00,55,12.30
2018,06,16,00,56,12.30
2018,06,16,00,57,12.30
2018,06,16,00,58,12.30
2018,06,16,00,59,12.30
2018,06,16,01,00,12.30
2018,06,16,01,01,12.30
2018,06,16,01,02,12.20
2018,06,16,01,03,12.20
2018,06,16,01,04,12.20
2018,06,16,01,05,12.20
2018,06,16,01,06,12.20
2018,06,16,01,07,12.20
2018,06,16,01,08,12.20
2018,06,16,01,09,12.20
2018,06,16,01,10,12.20
2018,06,16,01,11,12.20
2018,06,16,01,12,12.20
2018,06,16,01,13,12.20
2018,06,16,01,14,12.20
2018,06,16,01,15,12.20
2018,06,16,01,16,12.10
2018,06,16,01,17,12.10
2018,06,16,01,18,12.10
2018,06,16,01,19,12.10
2018,06,16,01,20,12.10
2018,06,16,01,21,12.10
2018,06,16,01,22,12.10
2018,06,16,01,23,12.10
2018,06,16,01,24,12.10
2018,06,16,01,25,12.10
2018,06,16,01,26,12.00
2018,06,16,01,27,12.10
2018,06,16,01,28,12.10
2018,06,16,01,29,12.10
2018,06,16,01,30,12.10
2018,06,16,01,31,12.10
2018,06,16,01,32,12.10
2018,06,16,01,33,12.10
2018,06,16,01,34,12.10
2018,06,16,01,35,12.00
2018,06,16,01,36,12.00
2018,06,16,01,37,12.00
2018,06,16,01,38,12.00
2018,06,16,01,39,12.00
2018,06,16,01,40,12.00
2018,06,16,01,41,12.00
2018,06,16,01,42,11.90
2018,06,16,01,43,11.90
2018,06,16,01,44,11.90
2018,06,16,01,45,11.90
2018,06,16,01,46,11.90
2018,06,16,01,47,11.90
2018,06,16,01,48,11.90
2018,06,16,01,49,11.80
2018,06,16,01,50,11.80
2018,06,16,01,51,11.80
2018,06,16,01,52,11.80
2018,06,16,01,53,11.80
2018,06,16,01,54,11.80
2018,06,16,01,55,11.80
2018,06,16,01,56,11.80
2018,06,16,01,57,11.70
2018,06,16,01,58,11.70
2018,06,16,01,59,11.70
2018,06,16,02,00,11.70
2018,06,16,02,01,11.70
2018,06,16,02,02,11.70
2018,06,16,02,03,11.70
2018,06,16,02,04,11.80
2018,06,16,02,05,11.80
2018,06,16,02,06,11.80
2018,06,16,02,07,11.80
2018,06,16,02,08,11.80
2018,06,16,02,09,11.80
2018,06,16,02,10,11.80
2018,06,16,02,11,11.80
2018,06,16,02,12,11.80
2018,06,16,02,13,11.80
2018,06,16,02,14,11.80
2018,06,16,02,15,11.80
2018,06,16,02,16,11.80
2018,06,16,02,17,11.80
2018,06,16,02,18,11.90
2018,06,16,02,19,11.90
2018,06,16,02,20,11.90
2018,06,16,02,21,11.90
2018,06,16,02,22,11.90
2018,06,16,02,23,11.90
2018,06,16,02,24,11.90
2018,06,16,02,25,11.80
2018,06,16,02,26,11.80
2018,06,16,02,27,11.80
2018,06,16,02,28,11.80
2018,06,16,02,29,11.80
2018,06,16,02,30,11.80
2018,06,16,02,31,11.70
2018,06,16,02,32,11.70
2018,06,16,02,33,11.70
2018,06,16,02,34,11.70
2018,06,16,02,35,11.60
2018,06,16,02,36,11.60
2018,06,16,02,37,11.60
2018,06,16,02,38,11.60
2018,06,16,02,39,11.50
2018,06,16,02,40,11.60
2018,06,16,02,41,11.60
2018,06,16,02,42,11.60
2018,06,16,02,43,11.60
2018,06,16,02,44,11.60
2018,06,16,02,45,11.60
2018,06,16,02,46,11.50
2018,06,16,02,47,11.50
2018,06,16,02,48,11.50
2018,06,16,02,49,11.40
2018,06,16,02,50,11.40
2018,06,16,02,51,11.30
2018,06,16,02,52,11.30
2018,06,16,02,53,11.20
2018,06,16,02,54,11.20
2018,06,16,02,55,11.10
2018,06,16,02,56,11.10
2018,06,16,02,57,11.00
2018,06,16,02,58,11.00
2018,06,16,02,59,10.90
2018,06,16,03,00,10.90
2018,06,16,03,01,10.90
2018,06,16,03,02,10.90
2018,06,16,03,03,10.90
2018,06,16,03,04,11.00
2018,06,16,03,05,11.00
2018,06,16,03,06,11.10
2018,06,16,03,07,11.10
2018,06,16,03,08,11.10
2018,06,16,03,09,11.10
2018,06,16,03,10,11.20
2018,06,16,03,11,11.20
2018,06,16,03,12,11.20
2018,06,16,03,13,11.20
2018,06,16,03,14,11.20
2018,06,16,03,15,11.20
2018,06,16,03,16,11.20
2018,06,16,03,17,11.20
2018,06,16,03,18,11.20
2018,06,16,03,19,11.20
2018,06,16,03,20,11.10
2018,06,16,03,21,11.10
2018,06,16,03,22,11.10
2018,06,16,03,23,11.10
2018,06,16,03,24,11.10
2018,06,16,03,25,11.00
2018,06,16,03,26,11.00
2018,06,16,03,27,10.90
2018,06,16,03,28,10.90
2018,06,16,03,29,10.80
2018,06,16,03,30,10.80
2018,06,16,03,31,10.80
2018,06,16,03,32,10.80
2018,06,16,03,33,10.80
2018,06,16,03,34,10.90
2018,06,16,03,35,10.90
2018,06,16,03,36,11.00
2018,06,16,03,37,11.00
2018,06,16,03,38,11.10
2018,06,16,03,39,11.10
2018,06,16,03,40,11.20
2018,06,16,03,41,11.20
2018,06,16,03,42,11.20
2018,06,16,03,43,11.20
2018,06,16,03,44,11.20
2018,06,16,03,45,11.30
2018,06,16,03,46,11.20
2018,06,16,03,47,11.20
2018,06,16,03,48,11.20
2018,06,16,03,49,11.20
2018,06,16,03,50,11.20
2018,06,16,03,51,11.20
2018,06,16,03,52,11.20
2018,06,16,03,53,11.20
2018,06,16,03,54,11.20
2018,06,16,03,55,11.20
2018,06,16,03,56,11.20
2018,06,16,03,57,11.20
2018,06,16,03,58,11.20
2018,06,16,03,59,11.20
2018,06,16,04,00,11.20
2018,06,16,04,01,11.20
2018,06,16,04,02,11.20
2018,06,16,04,03,11.20
2018,06,16,04,04,11.20
2018,06,16,04,05,11.20
2018,06,16,04,06,11.20
2018,06,16,04,07,11.20
2018,06,16,04,08,11.20
2018,06,16,04,09,11.20
2018,06,16,04,10,11.20
2018,06,16,04,11,11.20
2018,06,16,04,12,11.20
2018,06,16,04,13,11.20
2018,06,16,04,14,11.20
2018,06,16,04,15,11.20
2018,06,16,04,16,11.20
2018,06,16,04,17,11.20
2018,06,16,04,18,11.20
2018,06,16,04,19,11.10
2018,06,16,04,20,11.10
2018,06,16,04,21,11.10
2018,06,16,04,22,11.10
2018,06,16,04,23,11.00
2018,06,16,04,24,11.00
2018,06,16,04,25,10.90
2018,06,16,04,26,10.90
2018,06,16,04,27,10.80
2018,06,16,04,28,10.70
2018,06,16,04,29,10.60
2018,06,16,04,30,10.60
2018,06,16,04,31,10.50
2018,06,16,04,32,10.50
2018,06,16,04,33,10.40
2018,06,16,04,34,10.30
2018,06,16,04,35,10.30
2018,06,16,04,36,10.30
2018,06,16,04,37,10.20
2018,06,16,04,38,10.20
2018,06,16,04,39,10.20
2018,06,16,04,40,10.10
2018,06,16,04,41,10.10
2018,06,16,04,42,10.10
2018,06,16,04,43,10.10
2018,06,16,04,44,10.10
2018,06,16,04,45,10.10
2018,06,16,04,46,10.00
2018,06,16,04,47,10.00
2018,06,16,04,48,10.00
2018,06,16,04,49,9.90
2018,06,16,04,50,9.90
2018,06,16,04,51,9.90
2018,06,16,04,52,9.90
2018,06,16,04,53,9.90
2018,06,16,04,54,9.90
2018,06,16,04,55,9.90
2018,06,16,04,56,9.80
2018,06,16,04,57,9.80
2018,06,16,04,58,9.80
2018,06,16,04,59,9.80
2018,06,16,05,00,9.80
2018,06,16,05,01,9.80
2018,06,16,05,02,9.80
2018,06,16,05,03,9.80
2018,06,16,05,04,9.80
2018,06,16,05,05,9.90
2018,06,16,05,06,9.90
2018,06,16,05,07,9.90
2018,06,16,05,08,9.90
2018,06,16,05,09,9.90
2018,06,16,05,10,10.00
2018,06,16,05,11,10.00
2018,06,16,05,12,10.10
2018,06,16,05,13,10.10
2018,06,16,05,14,10.20
2018,06,16,05,15,10.20
2018,06,16,05,16,10.30
2018,06,16,05,17,10.30
2018,06,16,05,18,10.30
2018,06,16,05,19,10.30
2018,06,16,05,20,10.40
2018,06,16,05,21,10.40
2018,06,16,05,22,10.40
2018,06,16,05,23,10.40
2018,06,16,05,24,10.40
2018,06,16,05,25,10.50
2018,06,16,05,26,10.50
2018,06,16,05,27,10.50
2018,06,16,05,28,10.50
2018,06,16,05,29,10.50
2018,06,16,05,30,10.50
2018,06,16,05,31,10.50
2018,06,16,05,32,10.50
2018,06,16,05,33,10.50
2018,06,16,05,34,10.50
2018,06,16,05,35,10.50
2018,06,16,05,36,10.50
2018,06,16,05,37,10.50
2018,06,16,05,38,10.40
2018,06,16,05,39,10.40
2018,06,16,05,40,10.30
2018,06,16,05,41,10.30
2018,06,16,05,42,10.30
2018,06,16,05,43,10.20
2018,06,16,05,44,10.20
2018,06,16,05,45,10.20
2018,06,16,05,46,10.10
2018,06,16,05,47,10.10
2018,06,16,05,48,10.00
2018,06,16,05,49,10.00
2018,06,16,05,50,10.00
2018,06,16,05,51,9.90
2018,06,16,05,52,9.90
2018,06,16,05,53,10.00
2018,06,16,05,54,10.00
2018,06,16,05,55,10.00
2018,06,16,05,56,10.10
2018,06,16,05,57,10.10
2018,06,16,05,58,10.20
2018,06,16,05,59,10.20
2018,06,16,06,00,10.20
2018,06,16,06,01,10.20
2018,06,16,06,02,10.10
2018,06,16,06,03,10.10
2018,06,16,06,04,10.00
2018,06,16,06,05,10.00
2018,06,16,06,06,9.90
2018,06,16,06,07,9.90
2018,06,16,06,08,10.00
2018,06,16,06,09,10.00
2018,06,16,06,10,10.10
2018,06,16,06,11,10.10
2018,06,16,06,12,10.10
2018,06,16,06,13,10.20
2018,06,16,06,14,10.20
2018,06,16,06,15,10.30
2018,06,16,06,16,10.30
2018,06,16,06,17,10.40
2018,06,16,06,18,10.50
2018,06,16,06,19,10.50
2018,06,16,06,20,10.60
2018,06,16,06,21,10.70
2018,06,16,06,22,10.70
2018,06,16,06,23,10.70
2018,06,16,06,24,10.80
2018,06,16,06,25,10.90
2018,06,16,06,26,10.90
2018,06,16,06,27,11.00
2018,06,16,06,28,11.00
2018,06,16,06,29,11.10
2018,06,16,06,30,11.20
2018,06,16,06,31,11.30
2018,06,16,06,32,11.40
2018,06,16,06,33,11.40
2018,06,16,06,34,11.50
2018,06,16,06,35,11.50
2018,06,16,06,36,11.60
2018,06,16,06,37,11.60
2018,06,16,06,38,11.70
2018,06,16,06,39,11.70
2018,06,16,06,40,11.80
2018,06,16,06,41,11.80
2018,06,16,06,42,11.90
2018,06,16,06,43,11.90
2018,06,16,06,44,12.00
2018,06,16,06,45,12.00
2018,06,16,06,46,12.10
2018,06,16,06,47,12.10
2018,06,16,06,48,12.20
2018,06,16,06,49,12.20
2018,06,16,06,50,12.30
2018,06,16,06,51,12.30
2018,06,16,06,52,12.30
2018,06,16,06,53,12.40
2018,06,16,06,54,12.40
2018,06,16,06,55,12.40
2018,06,16,06,56,12.50
2018,06,16,06,57,12.50
2018,06,16,06,58,12.60
2018,06,16,06,59,12.60
2018,06,16,07,00,12.60
2018,06,16,07,01,12.70
2018,06,16,07,02,12.70
2018,06,16,07,03,12.70
2018,06,16,07,04,12.70
2018,06,16,07,05,12.80
2018,06,16,07,06,12.80
2018,06,16,07,07,12.80
2018,06,16,07,08,12.90
2018,06,16,07,09,12.90
2018,06,16,07,10,13.00
2018,06,16,07,11,13.00
2018,06,16,07,12,13.10
2018,06,16,07,13,13.10
2018,06,16,07,14,13.10
2018,06,16,07,15,13.20
2018,06,16,07,16,13.20
2018,06,16,07,17,13.20
2018,06,16,07,18,13.30
2018,06,16,07,19,13.30
2018,06,16,07,20,13.30
2018,06,16,07,21,13.40
2018,06,16,07,22,13.40
2018,06,16,07,23,13.50
2018,06,16,07,24,13.50
2018,06,16,07,25,13.60
2018,06,16,07,26,13.70
2018,06,16,07,27,13.70
2018,06,16,07,28,13.70
2018,06,16,07,29,13.80
2018,06,16,07,30,13.80
2018,06,16,07,31,13.90
2018,06,16,07,32,13.90
2018,06,16,07,33,13.90
2018,06,16,07,34,14.00
2018,06,16,07,35,14.00
2018,06,16,07,36,14.10
2018,06,16,07,37,14.10
2018,06,16,07,38,14.20
2018,06,16,07,39,14.20
2018,06,16,07,40,14.30
2018,06,16,07,41,14.30
2018,06,16,07,42,14.40
2018,06,16,07,43,14.40
2018,06,16,07,44,14.40
2018,06,16,07,45,14.50
2018,06,16,07,46,14.50
2018,06,16,07,47,14.60
2018,06,16,07,48,14.60
2018,06,16,07,49,14.60
2018,06,16,07,50,14.70
2018,06,16,07,51,14.70
2018,06,16,07,52,14.70
2018,06,16,07,53,14.80
2018,06,16,07,54,14.80
2018,06,16,07,55,14.80
2018,06,16,07,56,14.80
2018,06,16,07,57,14.90
2018,06,16,07,58,14.90
2018,06,16,07,59,15.00
2018,06,16,08,00,15.00
2018,06,16,08,01,15.10
2018,06,16,08,02,15.20
2018,06,16,08,03,15.20
2018,06,16,08,04,15.30
2018,06,16,08,05,15.30
2018,06,16,08,06,15.40
2018,06,16,08,07,15.40
2018,06,16,08,08,15.40
2018,06,16,08,09,15.50
2018,06,16,08,10,15.50
2018,06,16,08,11,15.50
2018,06,16,08,12,15.50
2018,06,16,08,13,15.50
2018,06,16,08,14,15.60
2018,06,16,08,15,15.60
2018,06,16,08,16,15.60
2018,06,16,08,17,15.60
2018,06,16,08,18,15.60
2018,06,16,08,19,15.60
2018,06,16,08,20,15.60
2018,06,16,08,21,15.50
2018,06,16,08,22,15.50
2018,06,16,08,23,15.50
2018,06,16,08,24,15.50
2018,06,16,08,25,15.50
2018,06,16,08,26,15.40
2018,06,16,08,27,15.40
2018,06,16,08,28,15.40
2018,06,16,08,29,15.40
2018,06,16,08,30,15.40
2018,06,16,08,31,15.40
2018,06,16,08,32,15.40
2018,06,16,08,33,15.40
2018,06,16,08,34,15.40
2018,06,16,08,35,15.40
2018,06,16,08,36,15.40
2018,06,16,08,37,15.40
2018,06,16,08,38,15.40
2018,06,16,08,39,15.40
2018,06,16,08,40,15.40
2018,06,16,08,41,15.40
2018,06,16,08,42,15.50
2018,06,16,08,43,15.50
2018,06,16,08,44,15.50
2018,06,16,08,45,15.60
2018,06,16,08,46,15.60
2018,06,16,08,47,15.60
2018,06,16,08,48,15.70
2018,06,16,08,49,15.70
2018,06,16,08,50,15.70
2018,06,16,08,51,15.80
2018,06,16,08,52,15.80
2018,06,16,08,53,15.80
2018,06,16,08,54,15.90
2018,06,16,08,55,16.00
2018,06,16,08,56,16.00
2018,06,16,08,57,16.10
2018,06,16,08,58,16.10
2018,06,16,08,59,16.10
2018,06,16,09,00,16.20
2018,06,16,09,01,16.20
2018,06,16,09,02,16.20
2018,06,16,09,03,16.30
2018,06,16,09,04,16.30
2018,06,16,09,05,16.40
2018,06,16,09,06,16.40
2018,06,16,09,07,16.50
2018,06,16,09,08,16.50
2018,06,16,09,09,16.60
2018,06,16,09,10,16.70
2018,06,16,09,11,16.70
2018,06,16,09,12,16.80
2018,06,16,09,13,16.80
2018,06,16,09,14,16.80
2018,06,16,09,15,16.90
2018,06,16,09,16,16.90
2018,06,16,09,17,17.00
2018,06,16,09,18,17.00
2018,06,16,09,19,17.10
2018,06,16,09,20,17.20
2018,06,16,09,21,17.30
2018,06,16,09,22,17.30
2018,06,16,09,23,17.40
2018,06,16,09,24,17.50
2018,06,16,09,25,17.50
2018,06,16,09,26,17.60
2018,06,16,09,27,17.60
2018,06,16,09,28,17.70
2018,06,16,09,29,17.70
2018,06,16,09,30,17.80
2018,06,16,09,31,17.80
2018,06,16,09,32,17.90
2018,06,16,09,33,17.90
2018,06,16,09,34,17.90
2018,06,16,09,35,18.00
2018,06,16,09,36,18.00
2018,06,16,09,37,18.10
2018,06,16,09,38,18.10
2018,06,16,09,39,18.10
2018,06,16,09,40,18.10
2018,06,16,09,41,18.20
2018,06,16,09,42,18.30
2018,06,16,09,43,18.30
2018,06,16,09,44,18.40
2018,06,16,09,45,18.40
2018,06,16,09,46,18.40
2018,06,16,09,47,18.40
2018,06,16,09,48,18.40
2018,06,16,09,49,18.40
2018,06,16,09,50,18.50
2018,06,16,09,51,18.60
2018,06,16,09,52,18.60
2018,06,16,09,53,18.60
2018,06,16,09,54,18.60
2018,06,16,09,55,18.70
2018,06,16,09,56,18.80
2018,06,16,09,57,18.80
2018,06,16,09,58,18.80
2018,06,16,09,59,18.90
2018,06,16,10,00,19.00
2018,06,16,10,01,19.00
2018,06,16,10,02,19.10
2018,06,16,10,03,19.10
2018,06,16,10,04,19.00
2018,06,16,10,05,19.00
2018,06,16,10,06,19.00
2018,06,16,10,07,19.00
2018,06,16,10,08,19.10
2018,06,16,10,09,19.20
2018,06,16,10,10,19.20
2018,06,16,10,11,19.30
2018,06,16,10,12,19.30
2018,06,16,10,13,19.40
2018,06,16,10,14,19.50
2018,06,16,10,15,19.50
2018,06,16,10,16,19.60
2018,06,16,10,17,19.70
2018,06,16,10,18,19.80
2018,06,16,10,19,19.90
2018,06,16,10,20,19.80
2018,06,16,10,21,19.80
2018,06,16,10,22,19.80
2018,06,16,10,23,19.80
2018,06,16,10,24,19.80
2018,06,16,10,25,19.80
2018,06,16,10,26,19.90
2018,06,16,10,27,19.90
2018,06,16,10,28,19.90
2018,06,16,10,29,19.90
2018,06,16,10,30,19.90
2018,06,16,10,31,20.00
2018,06,16,10,32,20.10
2018,06,16,10,33,20.20
2018,06,16,10,34,20.30
2018,06,16,10,35,20.40
2018,06,16,10,36,20.50
2018,06,16,10,37,20.50
2018,06,16,10,38,20.50
2018,06,16,10,39,20.60
2018,06,16,10,40,20.50
2018,06,16,10,41,20.50
2018,06,16,10,42,20.50
2018,06,16,10,43,20.60
2018,06,16,10,44,20.60
2018,06,16,10,45,20.70
2018,06,16,10,46,20.70
2018,06,16,10,47,20.60
2018,06,16,10,48,20.60
2018,06,16,10,49,20.60
2018,06,16,10,50,20.60
2018,06,16,10,51,20.60
2018,06,16,10,52,20.60
2018,06,16,10,53,20.60
2018,06,16,10,54,20.60
2018,06,16,10,55,20.70
2018,06,16,10,56,20.70
2018,06,16,10,57,20.70
2018,06,16,10,58,20.80
2018,06,16,10,59,20.80
2018,06,16,11,00,20.80
2018,06,16,11,01,20.80
2018,06,16,11,02,20.80
2018,06,16,11,03,20.90
2018,06,16,11,04,21.00
2018,06,16,11,05,21.00
2018,06,16,11,06,21.10
2018,06,16,11,07,21.20
2018,06,16,11,08,21.20
2018,06,16,11,09,21.30
2018,06,16,11,10,21.30
2018,06,16,11,11,21.40
2018,06,16,11,12,21.40
2018,06,16,11,13,21.50
2018,06,16,11,14,21.60
2018,06,16,11,15,21.60
2018,06,16,11,16,21.70
2018,06,16,11,17,21.80
2018,06,16,11,18,21.80
2018,06,16,11,19,21.80
2018,06,16,11,20,21.80
2018,06,16,11,21,21.80
2018,06,16,11,22,21.90
2018,06,16,11,23,21.90
2018,06,16,11,24,22.00
2018,06,16,11,25,22.00
2018,06,16,11,26,22.00
2018,06,16,11,27,22.10
2018,06,16,11,28,22.20
2018,06,16,11,29,22.20
2018,06,16,11,30,22.40
2018,06,16,11,31,22.50
2018,06,16,11,32,22.60
2018,06,16,11,33,22.60
2018,06,16,11,34,22.70
2018,06,16,11,35,22.80
2018,06,16,11,36,22.80
2018,06,16,11,37,22.90
2018,06,16,11,38,22.90
2018,06,16,11,39,22.90
2018,06,16,11,40,22.90
2018,06,16,11,41,23.00
2018,06,16,11,42,23.00
2018,06,16,11,43,23.10
2018,06,16,11,44,23.20
2018,06,16,11,45,23.20
2018,06,16,11,46,23.20
2018,06,16,11,47,23.20
2018,06,16,11,48,23.30
2018,06,16,11,49,23.30
2018,06,16,11,50,23.30
2018,06,16,11,51,23.40
2018,06,16,11,52,23.40
2018,06,16,11,53,23.50
2018,06,16,11,54,23.60
2018,06,16,11,55,23.70
2018,06,16,11,56,23.80
2018,06,16,11,57,23.90
2018,06,16,11,58,24.00
2018,06,16,11,59,24.10
2018,06,16,12,00,24.10
2018,06,16,12,01,24.10
2018,06,16,12,02,24.00
2018,06,16,12,03,23.90
2018,06,16,12,04,23.90
2018,06,16,12,05,24.00
2018,06,16,12,06,24.10
2018,06,16,12,07,24.20
2018,06,16,12,08,24.30
2018,06,16,12,09,24.40
2018,06,16,12,10,24.40
2018,06,16,12,11,24.50
2018,06,16,12,12,24.60
2018,06,16,12,13,24.60
2018,06,16,12,14,24.60
2018,06,16,12,15,24.60
2018,06,16,12,16,24.60
2018,06,16,12,17,24.60
2018,06,16,12,18,24.60
2018,06,16,12,19,24.60
2018,06,16,12,20,24.60
2018,06,16,12,21,24.60
2018,06,16,12,22,24.60
2018,06,16,12,23,24.70
2018,06,16,12,24,24.70
2018,06,16,12,25,24.80
2018,06,16,12,26,24.80
2018,06,16,12,27,24.90
2018,06,16,12,28,24.90
2018,06,16,12,29,25.00
2018,06,16,12,30,25.00
2018,06,16,12,31,25.10
2018,06,16,12,32,25.10
2018,06,16,12,33,25.00
2018,06,16,12,34,25.00
2018,06,16,12,35,25.10
2018,06,16,12,36,25.00
2018,06,16,12,37,25.00
2018,06,16,12,38,25.00
2018,06,16,12,39,25.00
2018,06,16,12,40,25.10
2018,06,16,12,41,25.10
2018,06,16,12,42,25.10
2018,06,16,12,43,25.20
2018,06,16,12,44,25.20
2018,06,16,12,45,25.20
2018,06,16,12,46,25.20
2018,06,16,12,47,25.20
2018,06,16,12,48,25.20
2018,06,16,12,49,25.10
2018,06,16,12,50,25.10
2018,06,16,12,51,25.10
2018,06,16,12,52,25.10
2018,06,16,12,53,25.10
2018,06,16,12,54,25.10
2018,06,16,12,55,25.20
2018,06,16,12,56,25.30
2018,06,16,12,57,25.30
2018,06,16,12,58,25.30
2018,06,16,12,59,25.30
2018,06,16,13,00,25.40
2018,06,16,13,01,25.30
2018,06,16,13,02,25.30
2018,06,16,13,03,25.40
2018,06,16,13,04,25.50
2018,06,16,13,05,25.50
2018,06,16,13,06,25.60
2018,06,16,13,07,25.70
2018,06,16,13,08,25.70
2018,06,16,13,09,25.70
2018,06,16,13,10,25.70
2018,06,16,13,11,25.80
2018,06,16,13,12,25.90
2018,06,16,13,13,25.90
2018,06,16,13,14,26.00
2018,06,16,13,15,26.10
2018,06,16,13,16,26.10
2018,06,16,13,17,26.00
2018,06,16,13,18,26.00
2018,06,16,13,19,26.10
2018,06,16,13,20,26.10
2018,06,16,13,21,26.20
2018,06,16,13,22,26.20
2018,06,16,13,23,26.30
2018,06,16,13,24,26.30
2018,06,16,13,25,26.30
2018,06,16,13,26,26.30
2018,06,16,13,27,26.20
2018,06,16,13,28,26.20
2018,06,16,13,29,26.20
2018,06,16,13,30,26.20
2018,06,16,13,31,26.30
2018,06,16,13,32,26.40
2018,06,16,13,33,26.50
2018,06,16,13,34,26.50
2018,06,16,13,35,26.50
2018,06,16,13,36,26.40
2018,06,16,13,37,26.30
2018,06,16,13,38,26.30
2018,06,16,13,39,26.30
2018,06,16,13,40,26.30
2018,06,16,13,41,26.20
2018,06,16,13,42,26.20
2018,06,16,13,43,26.20
2018,06,16,13,44,26.20
2018,06,16,13,45,26.30
2018,06,16,13,46,26.30
2018,06,16,13,47,26.30
2018,06,16,13,48,26.40
2018,06,16,13,49,26.40
2018,06,16,13,50,26.50
2018,06,16,13,51,26.60
2018,06,16,13,52,26.60
2018,06,16,13,53,26.70
2018,06,16,13,54,26.70
2018,06,16,13,55,26.70
2018,06,16,13,56,26.70
2018,06,16,13,57,26.70
2018,06,16,13,58,26.70
2018,06,16,13,59,26.80
2018,06,16,14,00,26.90
2018,06,16,14,01,27.00
2018,06,16,14,02,27.10
2018,06,16,14,03,27.20
2018,06,16,14,04,27.20
2018,06,16,14,05,27.20
2018,06,16,14,06,27.20
2018,06,16,14,07,27.30
2018,06,16,14,08,27.30
2018,06,16,14,09,27.20
2018,06,16,14,10,27.20
2018,06,16,14,11,27.10
2018,06,16,14,12,27.10
2018,06,16,14,13,27.10
2018,06,16,14,14,27.10
2018,06,16,14,15,27.10
2018,06,16,14,16,27.10
2018,06,16,14,17,27.10
2018,06,16,14,18,27.20
2018,06,16,14,19,27.30
2018,06,16,14,20,27.30
2018,06,16,14,21,27.30
2018,06,16,14,22,27.30
2018,06,16,14,23,27.30
2018,06,16,14,24,27.30
2018,06,16,14,25,27.30
2018,06,16,14,26,27.30
2018,06,16,14,27,27.20
2018,06,16,14,28,27.20
2018,06,16,14,29,27.20
2018,06,16,14,30,27.30
2018,06,16,14,31,27.40
2018,06,16,14,32,27.40
2018,06,16,14,33,27.50
2018,06,16,14,34,27.60
2018,06,16,14,35,27.70
2018,06,16,14,36,27.70
2018,06,16,14,37,27.80
2018,06,16,14,38,27.70
2018,06,16,14,39,27.70
2018,06,16,14,40,27.80
2018,06,16,14,41,27.80
2018,06,16,14,42,27.80
2018,06,16,14,43,27.80
2018,06,16,14,44,27.90
2018,06,16,14,45,27.90
2018,06,16,14,46,28.00
2018,06,16,14,47,28.00
2018,06,16,14,48,28.10
2018,06,16,14,49,28.20
2018,06,16,14,50,28.30
2018,06,16,14,51,28.30
2018,06,16,14,52,28.30
2018,06,16,14,53,28.30
2018,06,16,14,54,28.30
2018,06,16,14,55,28.20
2018,06,16,14,56,28.20
2018,06,16,14,57,28.20
2018,06,16,14,58,28.10
2018,06,16,14,59,28.10
2018,06,16,15,00,28.20
2018,06,16,15,01,28.20
2018,06,16,15,02,28.30
2018,06,16,15,03,28.30
2018,06,16,15,04,28.40
2018,06,16,15,05,28.40
2018,06,16,15,06,28.40
2018,06,16,15,07,28.40
2018,06,16,15,08,28.30
2018,06,16,15,09,28.30
2018,06,16,15,10,28.20
2018,06,16,15,11,28.20
2018,06,16,15,12,28.20
2018,06,16,15,13,28.30
2018,06,16,15,14,28.40
2018,06,16,15,15,28.40
2018,06,16,15,16,28.40
2018,06,16,15,17,28.40
2018,06,16,15,18,28.40
2018,06,16,15,19,28.40
2018,06,16,15,20,28.40
2018,06,16,15,21,28.40
2018,06,16,15,22,28.30
2018,06,16,15,23,28.30
2018,06,16,15,24,28.30
2018,06,16,15,25,28.30
2018,06,16,15,26,28.40
2018,06,16,15,27,28.40
2018,06,16,15,28,28.40
2018,06,16,15,29,28.50
2018,06,16,15,30,28.50
2018,06,16,15,31,28.60
2018,06,16,15,32,28.70
2018,06,16,15,33,28.70
2018,06,16,15,34,28.80
2018,06,16,15,35,28.90
2018,06,16,15,36,29.00
2018,06,16,15,37,29.00
2018,06,16,15,38,29.00
2018,06,16,15,39,29.00
2018,06,16,15,40,28.90
2018,06,16,15,41,28.90
2018,06,16,15,42,28.90
2018,06,16,15,43,28.80
2018,06,16,15,44,28.80
2018,06,16,15,45,28.80
2018,06,16,15,46,28.70
2018,06,16,15,47,28.60
2018,06,16,15,48,28.60
2018,06,16,15,49,28.60
2018,06,16,15,50,28.70
2018,06,16,15,51,28.70
2018,06,16,15,52,28.60
2018,06,16,15,53,28.60
2018,06,16,15,54,28.70
2018,06,16,15,55,28.80
2018,06,16,15,56,28.90
2018,06,16,15,57,28.90
2018,06,16,15,58,29.00
2018,06,16,15,59,29.00
2018,06,16,16,00,29.10
2018,06,16,16,01,29.10
2018,06,16,16,02,29.20
2018,06,16,16,03,29.20
2018,06,16,16,04,29.30
2018,06,16,16,05,29.30
2018,06,16,16,06,29.30
2018,06,16,16,07,29.30
2018,06,16,16,08,29.30
2018,06,16,16,09,29.20
2018,06,16,16,10,29.20
2018,06,16,16,11,29.20
2018,06,16,16,12,29.20
2018,06,16,16,13,29.20
2018,06,16,16,14,29.30
2018,06,16,16,15,29.30
2018,06,16,16,16,29.30
2018,06,16,16,17,29.30
2018,06,16,16,18,29.30
2018,06,16,16,19,29.30
2018,06,16,16,20,29.30
2018,06,16,16,21,29.20
2018,06,16,16,22,29.20
2018,06,16,16,23,29.20
2018,06,16,16,24,29.20
2018,06,16,16,25,29.20
2018,06,16,16,26,29.20
2018,06,16,16,27,29.20
2018,06,16,16,28,29.20
2018,06,16,16,29,29.20
2018,06,16,16,30,29.20
2018,06,16,16,31,29.20
2018,06,16,16,32,29.30
2018,06,16,16,33,29.30
2018,06,16,16,34,29.20
2018,06,16,16,35,29.20
2018,06,16,16,36,29.10
2018,06,16,16,37,29.10
2018,06,16,16,38,29.00
2018,06,16,16,39,29.00
2018,06,16,16,40,28.90
2018,06,16,16,41,28.80
2018,06,16,16,42,28.80
2018,06,16,16,43,28.80
2018,06,16,16,44,28.80
2018,06,16,16,45,28.80
2018,06,16,16,46,28.90
2018,06,16,16,47,28.90
2018,06,16,16,48,29.00
2018,06,16,16,49,29.10
2018,06,16,16,50,29.10
2018,06,16,16,51,29.10
2018,06,16,16,52,29.00
2018,06,16,16,53,29.00
2018,06,16,16,54,29.10
2018,06,16,16,55,29.10
2018,06,16,16,56,29.10
2018,06,16,16,57,29.10
2018,06,16,16,58,29.10
2018,06,16,16,59,29.10
2018,06,16,17,00,29.10
2018,06,16,17,01,29.10
2018,06,16,17,02,29.10
2018,06,16,17,03,29.10
2018,06,16,17,04,29.10
2018,06,16,17,05,29.10
2018,06,16,17,06,29.10
2018,06,16,17,07,29.10
2018,06,16,17,08,29.10
2018,06,16,17,09,29.10
2018,06,16,17,10,29.10
2018,06,16,17,11,29.10
2018,06,16,17,12,29.10
2018,06,16,17,13,29.10
2018,06,16,17,14,29.10
2018,06,16,17,15,29.10
2018,06,16,17,16,29.00
2018,06,16,17,17,29.00
2018,06,16,17,18,29.10
2018,06,16,17,19,29.10
2018,06,16,17,20,29.10